Sturgeon Bay, WI

6:42 PM CDT on September 19, 2019 (GMT -0500)
Door County Cherryland

Weather History for KSUE - August, 2019

Change the Weather History Date:

Friday, August 23, 2019

  Actual Average Record
Temperature  
Mean Temperature 60 °F -  
Max Temperature 69 °F 75 °F 95 °F (1947)
Min Temperature 53 °F 56 °F 41 °F (1940)
Degree Days  
Heating Degree Days 5    
Growing Degree Days 10 (Base 50)    
Moisture  
Dew Point 53 °F    
Average Humidity 77    
Maximum Humidity 93    
Minimum Humidity 54    
Precipitation  
Precipitation 0.00 in - - ()
Sea Level Pressure  
Sea Level Pressure 30.26 in    
Wind  
Wind Speed 7 mph (NE)    
Max Wind Speed 12 mph    
Max Gust Speed -    
Visibility 10 miles    
Events      
Averages and records for this station are not official NWS values.
T = Trace of Precipitation, MM = Missing Value Source: NWS Daily Summary

Daily Weather History Graph

Daily Weather History Graph

Search for Another Location

Airport or City:

Astronomy

Aug. 23, 2019 Rise Set
Actual Time 6:00 AM CDT 7:42 PM CDT
Civil Twilight 5:29 AM CDT 8:13 PM CDT
Nautical Twilight 4:52 AM CDT 8:51 PM CDT
Astronomical Twilight 4:11 AM CDT 9:31 PM CDT
Moon 11:49 PM CDT (8/23) 1:57 PM CDT (8/23)
Length of Visible Light 14h 43m
Length of Day
13h 41m
Waning Gibbous, 49% of the Moon is Illuminated
Aug 23
Waning Gibbous
Aug 30
New
Sep 5
First Quarter
Sep 13
Full
Sep 21
Last Quarter

Hourly Weather History & Observations

Time (CDT) Temp. Dew Point Humidity Pressure Visibility Wind Dir Wind Speed Gust Speed Precip Events Conditions
12:56 AM 57.9 °F 52.0 °F 81% 30.18 in 10.0 mi NNE 8.1 mph - N/A   Clear
1:56 AM 57.0 °F 52.0 °F 83% 30.19 in 10.0 mi ENE 6.9 mph - N/A   Clear
2:56 AM 55.9 °F 52.0 °F 87% 30.20 in 10.0 mi NE 6.9 mph - N/A   Clear
3:56 AM 55.0 °F 52.0 °F 89% 30.22 in 10.0 mi NE 4.6 mph - N/A   Clear
4:56 AM 55.0 °F 51.1 °F 86% 30.23 in 10.0 mi NNE 5.8 mph - N/A   Clear
5:56 AM 54.0 °F 48.9 °F 83% 30.22 in 10.0 mi NNE 5.8 mph - N/A   Clear
6:56 AM 55.9 °F 52.0 °F 87% 30.25 in 10.0 mi NNE 4.6 mph - N/A   Clear
7:56 AM 60.1 °F 54.0 °F 80% 30.25 in 10.0 mi NNE 9.2 mph - N/A   Clear
8:56 AM 62.1 °F 55.0 °F 78% 30.26 in 10.0 mi NNE 8.1 mph - N/A   Clear
9:56 AM 63.0 °F 57.0 °F 81% 30.28 in 10.0 mi North 10.4 mph - N/A   Clear
10:56 AM 64.0 °F 55.9 °F 75% 30.28 in 10.0 mi North 10.4 mph - N/A   Partly Cloudy
11:56 AM 64.9 °F 55.9 °F 73% 30.27 in 10.0 mi North 10.4 mph - N/A   Partly Cloudy
12:56 PM 64.0 °F 53.1 °F 67% 30.28 in 10.0 mi North 11.5 mph - N/A   Overcast
1:56 PM 64.9 °F 54.0 °F 68% 30.28 in 10.0 mi North 8.1 mph - N/A   Overcast
2:56 PM 66.9 °F 52.0 °F 59% 30.27 in 10.0 mi ENE 10.4 mph - N/A   Mostly Cloudy
3:56 PM 66.0 °F 52.0 °F 60% 30.28 in 10.0 mi ENE 6.9 mph - N/A   Mostly Cloudy
4:56 PM 66.0 °F 52.0 °F 60% 30.28 in 10.0 mi ENE 6.9 mph - N/A   Mostly Cloudy
5:56 PM 66.9 °F 50.0 °F 54% 30.28 in 10.0 mi ENE 4.6 mph - N/A   Clear
6:56 PM 64.9 °F 51.1 °F 61% 30.27 in 10.0 mi Variable 5.8 mph - N/A   Scattered Clouds
7:56 PM 61.0 °F 52.0 °F 72% 30.28 in 10.0 mi Calm Calm - N/A   Clear
8:56 PM 57.0 °F 52.0 °F 83% 30.28 in 10.0 mi Calm Calm - N/A   Clear
9:56 PM 55.9 °F 52.0 °F 87% 30.29 in 10.0 mi NNE 3.5 mph - N/A   Clear
10:56 PM 54.0 °F 51.1 °F 90% 30.29 in 10.0 mi Calm Calm - N/A   Clear
11:56 PM 53.1 °F 51.1 °F 93% 30.30 in 10.0 mi ENE 3.5 mph - N/A   Partly Cloudy